[Date Prev][Date Next][Thread Prev][Thread Next] - [Date Index][Thread Index][Author Index]

2 Line ISS Keps 11-11



ISS
1 25544U 98067A   01315.15147147  .00065654  00000-0  78083-3 0  7117
2 25544  51.6395  69.6258 0009437 318.4777 101.4300 15.60463880170016


----
Via the sarex mailing list at AMSAT.ORG courtesy of AMSAT-NA.
To unsubscribe, send "unsubscribe sarex" to Majordomo@amsat.org



AMSAT Top AMSAT Home